THORAD AGENA D DEB, 4998

Orbit data source: Space-Track

THORAD AGENA D DEB, 4998 is space debris in SSO originally from a launch on Wed, 08 Apr 1970 UTC launched from the Air Force Western Test Range (AFWTR). Debris objects in space refer to the collection of defunct objects orbiting the Earth. Examples of debris include non-operational satellites, rocket bodies, and fragments generated from explosions, collisions, or faulty payload assembly.

Loading next visibility...
Identifier
4998, 1970-025HU
Orbit
SSO
Country
Flag of USUS
Related business
Manufacturer
Unknown
Mission
Spacecraft
Bus & Motor
Unknown
Mass
Unknown
Launch date (UTC)
1970-04-08 (56 years ago)
Launch vehicle
Unknown
Launch site
Air Force Western Test Range (AFWTR)
Object type
Payload
Rocket body
Debris
Shape & HBR
Unknown shape, 0.1 m
Radar Cross Section
Medium (>0.1 m² and <1 m²)

Expand to show TLE details & history
Last TLE update: 12 hours ago

TLE from 12 hours ago
0 THORAD AGENA D DEB
1  4998U 70025HU  26255.94360144 -.00000024  00000-0  35266-4 0  9998
2  4998 100.1965 250.8333 0009017 221.8928 193.8661 13.53089971785119
Epoch: 2026-09-12T22:38Z
TLE epoch observation values (Epoch: 2026-09-12T22:38:47.164Z)
Latitude
54.52593°
Longitude
-95.3516°
Altitude
1,076.312 km
Speed
7.316 km/s
True Right ascension
15h 45m 09s
True Declination
54° 22' 13"
Sunlit
Object was in daylight at epoch
Visualization orbit readout
Latitude
Unknown
Longitude
Unknown
Altitude
Unknown
Speed
Unknown
Apparent Right ascension
Unknown
Apparent Declination
Unknown
Sunlit
N/A
Visualization observer readout
Local Sidereal Time
02:48:12
Azimuth
Unknown
Elevation
Unknown
Doppler factor
Unknown
Orbital elements
Apogee altitude
1,064.94 km
Perigee altitude
1,051.53 km
Semi-major axis
7,436.372 km
Eccentricity
0.0009
Inclination
100.1965°
RAAN
250.8333°
Arg. of periapsis
221.8928°
True anomaly
193.84136°
Mean anomaly
193.8661°
Eccentric anomaly
193.85373°
Mean motion
3.38455 °/min
Orbital period
106.37 mins
BSTAR
0.000035266
Loading maneuver chart data...
Computing Atmospheric mass density...

Documentation

Showing up to 5 results
|